Home > Time Zones > World Clock > Weather > Norway > Sola > Past weeks

Flag Weather past 2 weeks in Sola, Norway

Now
39 °F

Passing clouds.


Feels Like: 39 °F
Forecast: 41 / 46 °F
Wind: 1 mph from Southeast

Location: Stavanger / Sola

Current Time: Nov 25, 2014 at 10:09:35 PM

Latest Report: Nov 25, 2014 at 9:00 PM


Visibility: 1 mi

Pressure: 30.27 "Hg

Humidity: 98%

Dew point: 39 °F

Location of SolaLocation

Historic Weather in Sola — Graph

°F

Sola temperature yesterday

Maximum temperature yesterday: 48 °F (at 2:00 PM)
Minimum temperature yesterday: 42 °F (at 10:00 PM)
Average temperature yesterday: 45 °F

Past Weeks' High & Low Weather Summary

 TemperatureHumidityPressure
High55 °F (Nov 12, 2:00 PM)97% (Nov 11, 5:00 AM)30.47 "Hg (Nov 11, 5:00 AM)
Low32 °F (Nov 22, 5:00 AM)48% (Nov 12, 3:00 PM)29.65 "Hg (Nov 10, 8:00 PM)
Average46 °F71%30.05 "Hg
* Reported Nov 10 8:00 PM — Nov 25 8:00 PM, Sola, Weather by CustomWeather, © 2014

Note: Actual official high and low records may vary slightly from our data, if they occured in-between our weather recording intervals... More about our weather records

Advertising

Sola weather history for previous 24 hours

 ConditionsComfort  
Time TempWeatherWind HumidityBarometerVisibility
8:00 PM
Nov 25
40 °FFog.1 mph97%30.27 "Hg1 mi
7:00 PM41 °FClear.1 mph96%30.27 "Hg1 mi
6:00 PM43 °FClear.1 mph96%30.26 "Hg4 mi
5:00 PM45 °FClear.No wind94%30.25 "Hg6 mi
4:00 PM46 °FPassing clouds.1 mph91%30.25 "Hg6 mi
3:00 PM48 °FOvercast.2 mph89%30.24 "Hg9 mi
2:00 PM49 °FPartly sunny.2 mph89%30.24 "Hg9 mi
1:00 PM49 °FOvercast.2 mph89%30.24 "Hg9 mi
12:00 PM49 °FPassing clouds.2 mph89%30.24 "Hg11 mi
9:00 AM44 °FPartly sunny.3 mph91%30.22 "Hg17 mi
8:00 AM43 °FOvercast.3 mph94%30.21 "Hg17 mi
7:00 AM41 °FOvercast.3 mph94%30.20 "Hg16 mi
6:00 AM42 °FOvercast.3 mph96%30.20 "Hg17 mi
5:00 AM40 °FClear.3 mph94%30.19 "Hg12 mi
4:00 AM42 °FPassing clouds.3 mph96%30.19 "Hg11 mi
3:00 AM42 °FOvercast.2 mph93%30.19 "Hg12 mi
2:00 AM42 °FOvercast.2 mph94%30.18 "Hg9 mi
1:00 AM40 °FPassing clouds.2 mph94%30.17 "Hg9 mi
12:00 AM42 °FPassing clouds.No wind93%30.16 "Hg9 mi
11:00 PM
Nov 24
44 °FOvercast.1 mph90%30.15 "Hg13 mi
10:00 PM42 °FPassing clouds.1 mph90%30.14 "Hg10 mi
Weather by CustomWeather, © 2014

See weather overviewHow to use our weather pages